Database: COMPET-N - COOP - 3PL - 4PL - CNDOOM

WAD: Doom | Doom 2 | TNT | Plutonia | AV | HR | Scythe | MM | MM2 | Requiem | CE
Category: speed | nmare | max | nm100s | tyson | pacifist | fast | respawn | nomo | misc | built | all
Highscore: ALL | IWAD | PWAD | Country | Continent

Remove: wad | map | category | player | all
MapPlayerTimeDateFilenameCommentsDL
E3M8: DisChris Ratcliff44.002000-02-12f3m8-044.zip - 305
E3M1: Hell KeepChris Ratcliff1:12.002001-12-28f3m1-112.zip - 353
MAP01: The TeleporterChris Ratcliff1:30.002001-04-22mm01f130.zip - 535
MAP01: Into the GateChris Ratcliff1:41.002001-04-22hf01-141.zip - 499
MAP01: OutpostChris Ratcliff1:49.002002-02-07m201f149.zip - 535
MAP03: InterlockChris Ratcliff1:58.002001-04-22mm03f158.zip - 307
E4M9: FearChris Ratcliff2:19.772015-11-09f4m9-219.zip - 974
E3M7: Gate To LimboChris Ratcliff2:31.002000-11-03f3m7-231.zip - 295
E2M1: ForayChris Ratcliff2:33.002001-04-17cf21-233.zip - 537
E4M1: Hell BeneathChris Ratcliff2:40.002002-03-21f4m1-240.zip - 300
MAP19: NMEChris Ratcliff2:41.002012-03-16pf19-241.zip - 281
MAP03: The DumpsterChris Ratcliff2:41.002001-05-26hf03-241.zip - 366
E1M5: Phobos LabChris Ratcliff2:59.002000-11-02f1m5-259.zip - 331
E4M9: FearChris Ratcliff3:06.002000-11-16f4m9-306.zip - 330
MAP02: The BridgeChris Ratcliff3:11.002003-03-27mm02f311.zip - 320
MAP02: Well of SoulsChris Ratcliff3:12.002002-04-20pf02-312.zip - 398
MAP19: Everything DiesChris Ratcliff3:13.002003-03-23hf19-313.zip - 427
MAP08: Tricks And TrapsChris Ratcliff3:14.002000-05-06fa08-314.zip - 290
E1M9: Military BaseChris Ratcliff3:17.002000-03-06f1m9-317.zip - 306
MAP05: Ghost TownChris Ratcliff3:17.002002-04-20pf05-317.zip - 306
E3M6: Mt. ErebusChris Ratcliff3:23.002001-07-11f3m6-323.zip - 306
MAP23: Barrels O FunChris Ratcliff3:29.002000-11-14fa23-329.zip - 313
MAP08: Tricks And TrapsChris Ratcliff3:47.002000-04-23fa08-347.zip - 291
MAP21: SlayerChris Ratcliff3:47.002001-09-22pf21-347.zip - 380
MAP10: RedemptionChris Ratcliff3:50.002001-09-01ef10-350.zip - 305
MAP02: Well of SoulsChris Ratcliff3:52.002001-07-21pf02-352.zip - 359
MAP25: Dead ProgressiveChris Ratcliff4:04.002003-04-19hf25-404.zip - 406
MAP02: The BridgeChris Ratcliff4:07.002001-04-22mm02f407.zip - 335
MAP06: Open SeasonChris Ratcliff4:09.002003-01-28ef06-409.zip - 400
MAP05: Ghost TownChris Ratcliff4:25.002001-09-23pf05-425.zip - 309
MAP08: And the Dead Shall RiseChris Ratcliff4:30.002001-04-23mm08f430.zip - 284
MAP10: Chambers of WarChris Ratcliff4:34.002004-07-17hf10-434.zip - 272
MAP08: The JailChris Ratcliff4:35.002004-09-18hf08-435.zip - 452
MAP04: CagedChris Ratcliff4:40.002002-10-02pf04-440.zip - 453
MAP32: Mostly HarmfulChris Ratcliff4:40.002010-07-11hf32-440.zip - 439
MAP03: AztecChris Ratcliff4:43.002002-10-03pf03-443.zip - 433
MAP05: Core InfectionChris Ratcliff4:54.002004-08-01hf05-454.zip - 413
MAP25: Dead ProgressiveChris Ratcliff5:13.002003-03-27hf25-513.zip - 286
MAP32: Mostly HarmfulChris Ratcliff5:14.002004-09-21hf32-514.zip - 303
MAP05: Core InfectionChris Ratcliff5:23.002001-05-26hf05-523.zip - 289
MAP17: Processing AreaChris Ratcliff5:25.002000-11-26ef17-525.zip - 282
MAP03: AztecChris Ratcliff5:26.002002-08-11pf03-526.zip - 332
MAP13: The CryptChris Ratcliff5:32.002001-10-29pf13-532.zip - 315
MAP19: Everything DiesChris Ratcliff5:32.002001-05-14hf19-532.zip - 296
MAP04: CagedChris Ratcliff5:38.002002-04-20pf04-538.zip - 336
MAP29: The Living EndChris Ratcliff5:42.002000-09-28fa29-542.zip - 285
MAP03: AztecChris Ratcliff6:13.002002-04-20pf03-613.zip - 318
E2M7: A Place of SinChris Ratcliff6:22.002001-08-31cf27-622.zip - 417
E2M7: A Place of SinChris Ratcliff6:22.002001-08-31cf27-622.zip - 430
MAP06: Open SeasonChris Ratcliff6:25.002000-11-25ef06-625.zip - 319
MAP32: CaribbeanChris Ratcliff6:27.002001-10-29ef32-627.zip - 385
MAP17: NukefallChris Ratcliff6:30.002003-01-25af17-630.zip - 380
E2M6: Halls Of The DamnedChris Ratcliff6:34.002000-11-03f2m6-634.zip - 339
MAP21: SiegeChris Ratcliff6:40.002002-06-11hf21-640.zip - 423
MAP03: AztecChris Ratcliff6:46.002001-10-28pf03-646.zip - 335
MAP31: The DescentChris Ratcliff6:46.002012-05-01hf31-646.zip - 427
MAP12: CraterChris Ratcliff6:49.002001-02-05ef12-649.zip - 400
MAP12: Great Halls of FireChris Ratcliff6:55.002004-07-17hf12-655.zip - 388
MAP28: HeckChris Ratcliff6:59.002000-10-16ef28-659.zip - 308
MAP13: Nukage ProcessingChris Ratcliff7:00.002001-01-21ef13-700.zip - 292
E2M5: Deimos ObservatoryChris Ratcliff7:20.002001-08-31cf25-720.zip - 434
E2M5: Deimos ObservatoryChris Ratcliff7:20.002001-08-31cf25-720.zip - 351
MAP32: CaribbeanChris Ratcliff7:34.002001-01-21ef32-734.zip - 295
MAP17: House of ThornChris Ratcliff7:35.002001-08-29mm17f735.zip - 376
MAP21: One Flew Over The Cacos NestChris Ratcliff7:46.002003-02-05af21-746.zip - 374
MAP14: Steel WorksChris Ratcliff7:49.002001-01-31ef14-749.zip - 302
E2M3: The Deimos ComplexChris Ratcliff8:02.002001-06-23cf23-802.zip - 457
MAP26: Between Scattered CorpsesChris Ratcliff8:16.002001-04-22mm26f816.zip - 280
E2M4: The Evil BaseChris Ratcliff8:21.002001-06-25cf24-821.zip - 398
E2M4: The Evil BaseChris Ratcliff8:21.002001-06-25cf24-821.zip - 459
MAP31: The DescentChris Ratcliff8:27.002004-09-25hf31-827.zip - 304
MAP25: Barons DenChris Ratcliff8:38.002000-12-22ef25-838.zip - 391
MAP10: The MansionChris Ratcliff8:46.002001-04-23mm10f846.zip - 314
MAP14: AquaductChris Ratcliff8:58.002001-04-23mm14f858.zip - 277
MAP27: CyberpunkChris Ratcliff9:04.002004-09-25hf27-904.zip - 410
MAP24: Io LabChris Ratcliff9:05.002001-08-28m224f905.zip - 376
MAP32: The Hidden Slime FactoryChris Ratcliff9:10.002001-06-18mm32f910.zip - 318
MAP05: Hells KitchenChris Ratcliff9:25.002001-04-22mm05f925.zip - 295
MAP28: The SewersChris Ratcliff9:40.002000-12-10pf28-940.zip - 383
MAP06: The PowerstationChris Ratcliff9:40.002001-04-22mm06f940.zip - 305
MAP32: CaribbeanChris Ratcliff9:42.002000-11-26ef32-942.zip - 295
MAP15: Bulls on ParadeChris Ratcliff10:00.002003-02-04af151000.zip - 405
MAP20: Mountain DepotChris Ratcliff10:46.002001-04-24mm201046.zip - 418
MAP22: Resistance is FutileChris Ratcliff11:42.002004-08-28hf221142.zip - 408
MAP23: ShowdownChris Ratcliff12:07.002001-04-22mm231207.zip - 269
MAP29: River StyxChris Ratcliff12:13.002000-12-24ef291213.zip - 305
MAP29: Temple of FearChris Ratcliff12:24.002004-08-20hf291224.zip - 414
MAP14: City in the CloudsChris Ratcliff12:34.002006-07-09hf141234.zip - 407
MAP04: The StandChris Ratcliff13:08.002001-04-22mm041308.zip - 300
MAP22: Resistance is FutileChris Ratcliff13:13.002003-03-28hf221313.zip - 291
MAP07: PrisonChris Ratcliff13:50.002001-02-09ef071350.zip - 300
MAP15: KarmacomaChris Ratcliff14:18.002001-06-26mm151418.zip - 257
MAP26: Base ExposureChris Ratcliff14:38.002001-08-30m2261438.zip - 270
MAP16: StonedChris Ratcliff14:44.002001-08-28mm161444.zip - 276
MAP29: Temple of FearChris Ratcliff14:46.002001-05-21hf291446.zip - 292
MAP15: Gates to HellChris Ratcliff15:07.002004-09-04hf151507.zip - 406
MAP24: Post MortemChris Ratcliff15:27.002007-04-29hf241527.zip - 444
MAP20: Judgement DayChris Ratcliff15:29.002004-06-19hf201529.zip - 415
MAP18: A Dead Mans TownChris Ratcliff15:46.002002-03-11mm181546.zip - 385
MAP14: City in the CloudsChris Ratcliff16:44.002004-07-31hf141644.zip - 313
MAP17: The Black TowersChris Ratcliff16:54.002004-08-07hf171654.zip - 399
MAP16: The PathChris Ratcliff17:08.002004-06-20hf161708.zip - 394
MAP20: Judgement DayChris Ratcliff18:38.002001-05-14hf201838.zip - 293
MAP16: The PathChris Ratcliff18:59.002001-09-21hf161859.zip - 290
MAP21: Twilight LabChris Ratcliff19:04.002002-03-19mm211904.zip - 265
MAP23: Ascending to the StarsChris Ratcliff21:14.002011-02-27hf232114.zip - 440
MAP11: Underground BaseChris Ratcliff22:18.002004-07-13hf112218.zip - 427
MAP18: Lake PoisonChris Ratcliff22:30.002003-01-24af182230.zip - 387
MAP24: Post MortemChris Ratcliff22:45.002004-08-14hf242245.zip - 309
MAP18: Hard AttackChris Ratcliff24:18.002004-08-21hf182418.zip - 397
MAP17: The Black TowersChris Ratcliff25:03.002001-05-14hf172503.zip - 301
MAP13: Last Look at EdenChris Ratcliff26:11.002004-09-11hf132611.zip - 423
MAP16: The PathChris Ratcliff26:30.002001-03-04hf162630.zip - 303
MAP27: Stench of EvilChris Ratcliff26:54.002011-08-30af272654.zip - 430
MAP18: Hard AttackChris Ratcliff28:07.002001-06-14hf182807.zip - 291
MAP11: Underground BaseChris Ratcliff29:45.002001-05-12hf112945.zip - 304
MAP24: Post MortemChris Ratcliff30:19.002001-05-19hf243019.zip - 301
MAP13: Last Look at EdenChris Ratcliff33:16.002001-05-12hf133316.zip - 271
MAP25: Demonic HordesChris Ratcliff35:03.002003-03-15af253503.zip - 408
MAP18: Hard AttackChris Ratcliff35:08.002001-05-14hf183508.zip - 248
EP4: Thy Flesh Consumed (E4M1 - E4M9)Chris Ratcliff36:00.002001-03-23e4fa3600.zip - 443
Remove: wad | map | category | player | all